Beach, ND

1:44 AM MDT on August 18, 2017 (GMT -0600)
Beach

Weather History for K20U - August, 2014

Change the Weather History Date:

Saturday, August 23, 2014

  Actual Average (KGDV) Record (KGDV)
Temperature  
Mean Temperature 58 °F -  
Max Temperature 60 °F 83 °F 96 °F (1997)
Min Temperature 55 °F 54 °F 37 °F (2015)
Degree Days  
Heating Degree Days 8    
Growing Degree Days 8 (Base 50)    
Moisture  
Dew Point 57 °F    
Average Humidity 100    
Maximum Humidity 100    
Minimum Humidity 100    
Precipitation  
Precipitation 0.98 in - - ()
Sea Level Pressure  
Sea Level Pressure 29.91 in    
Wind  
Wind Speed 17 mph (ENE)    
Max Wind Speed 24 mph    
Max Gust Speed 31 mph    
Visibility 4 miles    
Events Rain    
Averages and records for this station are not official NWS values.
T = Trace of Precipitation, MM = Missing Value Source: NWS Daily Summary

Daily Weather History Graph

Daily Weather History Graph

Search for Another Location

Airport or City:

Trip Planner

Search our weather history database for the weather conditions in past years. The results will help you decide how hot, cold, wet, or windy it might be!

Date:

Astronomy

Aug. 23, 2014 Rise Set
Actual Time 6:03 AM MDT 7:52 PM MDT
Civil Twilight 5:31 AM MDT 8:24 PM MDT
Nautical Twilight 4:51 AM MDT 9:04 PM MDT
Astronomical Twilight 4:08 AM MDT 9:47 PM MDT
Moon 4:19 AM MDT (8/23) 6:39 PM MDT (8/23)
Length of Visible Light 14h 53m
Length of Day
13h 48m
Waning Crescent, 3% of the Moon is Illuminated
Aug 23
Waning Crescent
Aug 25
New
Sep 2
First Quarter
Sep 8
Full
Sep 15
Last Quarter

Hourly Weather History & Observations

Time (MDT) Temp. Dew Point Humidity Pressure Visibility Wind Dir Wind Speed Gust Speed Precip Events Conditions
12:15 AM 60.8 °F 60.8 °F 100% 30.06 in 3.0 mi East 17.3 mph 23.0 mph N/A   Mist
12:35 AM 60.8 °F 60.8 °F 100% 30.06 in 4.0 mi East 18.4 mph 21.9 mph N/A   Mist
12:55 AM 60.8 °F 60.8 °F 100% 30.05 in 5.0 mi East 18.4 mph 25.3 mph N/A   Mist
1:15 AM 60.8 °F 60.8 °F 100% 30.04 in 2.5 mi East 18.4 mph 27.6 mph N/A   Mist
1:35 AM 59.0 °F 59.0 °F 100% 30.04 in 3.0 mi East 15.0 mph 21.9 mph N/A   Mist
1:55 AM 59.0 °F 59.0 °F 100% 30.04 in 3.0 mi East 15.0 mph 24.2 mph N/A   Mist
2:15 AM 59.0 °F 59.0 °F 100% 30.03 in 3.0 mi East 18.4 mph 24.2 mph N/A Rain Light Rain
2:35 AM 59.0 °F 59.0 °F 100% 30.02 in 3.0 mi East 15.0 mph 21.9 mph 0.03 in Rain Light Rain
3:15 AM 59.0 °F 59.0 °F 100% 30.01 in 2.0 mi East 19.6 mph 25.3 mph 0.11 in Rain Heavy Rain
3:35 AM 59.0 °F 59.0 °F 100% 30.01 in 2.0 mi East 16.1 mph 21.9 mph 0.24 in Rain Heavy Rain
3:55 AM 59.0 °F 59.0 °F 100% 30.01 in 2.5 mi East 16.1 mph 25.3 mph 0.25 in Rain Light Rain
4:15 AM 59.0 °F 59.0 °F 100% 30.01 in 2.0 mi East 16.1 mph - N/A   Mist
4:35 AM 59.0 °F 59.0 °F 100% 30.00 in 2.5 mi East 17.3 mph 23.0 mph N/A   Mist
5:15 AM 59.0 °F 59.0 °F 100% 29.99 in 2.5 mi East 19.6 mph 26.5 mph N/A Rain Light Rain
5:35 AM 59.0 °F 59.0 °F 100% 29.99 in 2.0 mi East 18.4 mph 25.3 mph N/A Rain Light Rain
5:55 AM 59.0 °F 59.0 °F 100% 29.99 in 5.0 mi East 20.7 mph 25.3 mph 0.02 in Rain Light Rain
6:15 AM 59.0 °F 59.0 °F 100% 29.99 in 5.0 mi East 19.6 mph 25.3 mph 0.02 in Rain Light Rain
6:35 AM 57.2 °F 57.2 °F 100% 29.99 in 3.0 mi East 17.3 mph 25.3 mph 0.05 in Rain Light Rain
6:55 AM 57.2 °F 57.2 °F 100% 29.98 in 4.0 mi East 20.7 mph 31.1 mph 0.08 in Rain Light Rain
7:15 AM 57.2 °F 57.2 °F 100% 29.98 in 4.0 mi East 20.7 mph 27.6 mph 0.02 in Rain Light Rain
7:35 AM 57.2 °F 57.2 °F 100% 29.99 in 4.0 mi East 17.3 mph 24.2 mph 0.05 in Rain Light Rain
7:55 AM 57.2 °F 57.2 °F 100% 29.99 in 2.5 mi East 21.9 mph 25.3 mph 0.11 in Rain Rain
8:15 AM 57.2 °F 57.2 °F 100% 29.99 in 1.5 mi East 19.6 mph 27.6 mph 0.15 in Rain Rain
8:35 AM 57.2 °F 57.2 °F 100% 29.99 in 2.0 mi East 17.3 mph 25.3 mph 0.25 in Rain Rain
8:55 AM 57.2 °F 57.2 °F 100% 29.98 in 2.0 mi East 20.7 mph 25.3 mph 0.35 in Rain Rain
9:15 AM 57.2 °F 57.2 °F 100% 29.98 in 4.0 mi East 18.4 mph 26.5 mph 0.01 in Rain Light Rain
9:35 AM 57.2 °F 57.2 °F 100% 29.97 in 5.0 mi East 19.6 mph 26.5 mph 0.03 in Rain Light Rain
9:55 AM 57.2 °F 57.2 °F 100% 29.96 in 10.0 mi East 24.2 mph 28.8 mph 0.03 in Rain Light Rain
10:15 AM 55.4 °F 55.4 °F 100% 29.96 in 10.0 mi East 20.7 mph 29.9 mph N/A Rain Light Rain
10:35 AM 57.2 °F 57.2 °F 100% 29.95 in 10.0 mi East 19.6 mph 27.6 mph N/A Rain Light Rain
10:55 AM 57.2 °F 57.2 °F 100% 29.94 in 10.0 mi East 21.9 mph 25.3 mph N/A   Unknown
11:15 AM 57.2 °F 57.2 °F 100% 29.94 in 10.0 mi East 20.7 mph 27.6 mph N/A   Unknown
11:35 AM 57.2 °F 57.2 °F 100% 29.94 in 10.0 mi East 18.4 mph 26.5 mph N/A Rain Light Rain
11:55 AM 55.4 °F 55.4 °F 100% 29.94 in 9.0 mi East 17.3 mph 28.8 mph N/A Rain Light Rain
12:15 PM 57.2 °F 57.2 °F 100% 29.93 in 6.0 mi East 19.6 mph 24.2 mph N/A Rain Light Rain
12:35 PM 57.2 °F 57.2 °F 100% 29.92 in 6.0 mi East 20.7 mph 28.8 mph 0.03 in Rain Light Rain
12:55 PM 57.2 °F 57.2 °F 100% 29.90 in 5.0 mi ENE 16.1 mph 23.0 mph 0.05 in Rain Light Rain
1:15 PM 57.2 °F 57.2 °F 100% 29.90 in 5.0 mi East 20.7 mph 27.6 mph 0.01 in Rain Light Rain
1:35 PM 57.2 °F 57.2 °F 100% 29.89 in 7.0 mi East 19.6 mph 27.6 mph 0.05 in Rain Light Rain
1:55 PM 57.2 °F 57.2 °F 100% 29.90 in 10.0 mi East 18.4 mph 26.5 mph 0.05 in Rain Light Rain
2:15 PM 57.2 °F 57.2 °F 100% 29.88 in 10.0 mi East 18.4 mph 21.9 mph N/A   Unknown
2:35 PM 57.2 °F 57.2 °F 100% 29.87 in 6.0 mi East 19.6 mph 27.6 mph N/A Rain Light Rain
2:55 PM 57.2 °F 57.2 °F 100% 29.87 in 4.0 mi ENE 20.7 mph 26.5 mph N/A Rain Light Rain
3:15 PM 57.2 °F 57.2 °F 100% 29.86 in 3.0 mi East 18.4 mph 28.8 mph N/A Rain Light Rain
3:35 PM 57.2 °F 57.2 °F 100% 29.86 in 2.0 mi ENE 16.1 mph 27.6 mph N/A Rain Light Rain
3:55 PM 57.2 °F 57.2 °F 100% 29.86 in 3.0 mi ENE 18.4 mph 25.3 mph N/A   Mist
4:15 PM 55.4 °F 55.4 °F 100% 29.86 in 1.5 mi ENE 12.7 mph 26.5 mph N/A   Mist
4:35 PM 55.4 °F 55.4 °F 100% 29.85 in 3.0 mi ENE 16.1 mph - 0.01 in Rain Light Rain
4:55 PM 55.4 °F 55.4 °F 100% 29.85 in 5.0 mi ENE 16.1 mph 19.6 mph 0.01 in   Mist
5:15 PM 55.4 °F 55.4 °F 100% 29.85 in 6.0 mi ENE 16.1 mph 23.0 mph N/A   Mist
5:35 PM 55.4 °F 55.4 °F 100% 29.85 in 2.0 mi ENE 15.0 mph 20.7 mph N/A Rain Light Rain
5:55 PM 55.4 °F 55.4 °F 100% 29.84 in 4.0 mi ENE 15.0 mph 19.6 mph N/A   Mist
6:15 PM 55.4 °F 55.4 °F 100% 29.83 in 2.5 mi ENE 12.7 mph - N/A   Mist
6:35 PM 55.4 °F 55.4 °F 100% 29.83 in 2.5 mi ENE 9.2 mph 20.7 mph N/A   Mist
6:55 PM 55.4 °F 55.4 °F 100% 29.83 in 5.0 mi ENE 15.0 mph 23.0 mph N/A   Mist
7:15 PM 55.4 °F 55.4 °F 100% 29.83 in 7.0 mi ENE 11.5 mph - N/A   Unknown
7:35 PM 55.4 °F 55.4 °F 100% 29.83 in 2.0 mi NE 8.1 mph - N/A   Mist
7:55 PM 55.4 °F 55.4 °F 100% 29.82 in 1.2 mi NE 8.1 mph - N/A   Mist
8:15 PM 55.4 °F 55.4 °F 100% 29.81 in 2.0 mi NE 8.1 mph - N/A Rain Light Rain
8:35 PM 55.4 °F 55.4 °F 100% 29.78 in 3.0 mi NE 11.5 mph - N/A   Mist
8:55 PM 55.4 °F 55.4 °F 100% 29.78 in 3.0 mi NE 11.5 mph 18.4 mph N/A   Mist
9:15 PM 55.4 °F 55.4 °F 100% 29.79 in 5.0 mi ENE 9.2 mph - N/A   Mist
9:35 PM 55.4 °F 55.4 °F 100% 29.78 in 2.5 mi NE 10.4 mph - N/A   Mist
9:55 PM 55.4 °F 55.4 °F 100% 29.80 in 1.2 mi ENE 3.5 mph - N/A   Mist
10:15 PM 55.4 °F 55.4 °F 100% 29.79 in 1.0 mi NNE 5.8 mph - N/A Rain Light Rain
10:35 PM 55.4 °F 55.4 °F 100% 29.78 in 1.5 mi NNE 5.8 mph - N/A   Mist
10:55 PM 55.4 °F 55.4 °F 100% 29.78 in 2.0 mi NNE 8.1 mph - N/A   Mist
11:15 PM 55.4 °F 55.4 °F 100% 29.78 in 3.0 mi NE 5.8 mph - N/A   Mist
11:35 PM 55.4 °F 55.4 °F 100% 29.77 in 3.0 mi NE 5.8 mph - N/A   Mist
11:55 PM 55.4 °F 55.4 °F 100% 29.76 in 3.0 mi NNE 5.8 mph - N/A   Mist